Weather History for Arbor Vitae, WI

Change the Weather History Date:

Monday, November 19, 2012

  Actual Average Record
Temperature  
Mean Temperature 46 °F -  
Max Temperature 55 °F 35 °F 59 °F (1941)
Min Temperature 37 °F 20 °F 0 °F (1986)
Degree Days  
Heating Degree Days 19    
Moisture  
Dew Point 34 °F    
Average Humidity 64    
Maximum Humidity 81    
Minimum Humidity 47    
Precipitation  
Precipitation 0.00 in - - ()
Sea Level Pressure  
Sea Level Pressure 30.10 in    
Wind  
Wind Speed 7 mph (NE)    
Max Wind Speed 15 mph    
Max Gust Speed 18 mph    
Visibility 10 miles    
Events      
Averages and records for this station are not official NWS values.
T = Trace of Precipitation, MM = Missing Value Source: NWS Daily Summary

Daily Weather History Graph

Daily Weather History Graph

Search for Another Location

Airport:

Trip Planner

Search our weather history database for the weather conditions in past years. The results will help you decide how hot, cold, wet, or windy it might be!

Date:

Astronomy

Nov. 19, 2012 Rise Set
Actual Time 7:05 AM CST 4:23 PM CST
Civil Twilight 6:32 AM CST 4:55 PM CST
Nautical Twilight 5:56 AM CST 5:32 PM CST
Astronomical Twilight 5:20 AM CST 6:07 PM CST
Moon 12:00 PM CST (11/19) 10:59 PM CST (11/19)
Length of Visible Light 10h 23m
Length of Day
9h 17m
Waxing Crescent, 41% of the Moon is Illuminated
Nov 19
Waxing Crescent
Nov 20
First Quarter
Nov 28
Full
Dec 6
Last Quarter
Dec 13
New

Hourly Weather History & Observations

Time (CST) Temp. Windchill Dew Point Humidity Pressure Visibility Wind Dir Wind Speed Gust Speed Precip Events Conditions
12:15 AM 44.6 °F 39.7 °F 32.0 °F 61% 30.19 in 10.0 mi ENE 9.2 mph - N/A   Overcast
12:35 AM 44.6 °F 38.8 °F 32.0 °F 61% 30.19 in 10.0 mi ENE 11.5 mph - N/A   Overcast
12:55 AM 44.6 °F 40.2 °F 32.0 °F 61% 30.19 in 10.0 mi NE 8.1 mph - N/A   Overcast
1:15 AM 44.6 °F 39.7 °F 32.0 °F 61% 30.18 in 10.0 mi NE 9.2 mph - N/A   Overcast
1:35 AM 44.6 °F 39.7 °F 32.0 °F 61% 30.18 in 10.0 mi NE 9.2 mph - N/A   Overcast
1:55 AM 42.8 °F 38.0 °F 32.0 °F 66% 30.18 in 10.0 mi NE 8.1 mph - N/A   Overcast
2:15 AM 42.8 °F 37.0 °F 32.0 °F 66% 30.17 in 10.0 mi NE 10.4 mph - N/A   Overcast
2:35 AM 42.8 °F 37.5 °F 32.0 °F 66% 30.16 in 10.0 mi NE 9.2 mph - N/A   Scattered Clouds
2:55 AM 41.0 °F 34.3 °F 32.0 °F 70% 30.16 in 10.0 mi NE 11.5 mph - N/A   Clear
3:15 AM 41.0 °F 35.8 °F 32.0 °F 70% 30.16 in 10.0 mi NE 8.1 mph - N/A   Clear
3:35 AM 41.0 °F 36.4 °F 32.0 °F 70% 30.16 in 10.0 mi NE 6.9 mph - N/A   Clear
3:55 AM 41.0 °F 35.8 °F 32.0 °F 70% 30.15 in 10.0 mi NE 8.1 mph - N/A   Clear
4:15 AM 41.0 °F 35.8 °F 32.0 °F 70% 30.15 in 10.0 mi NE 8.1 mph - N/A   Clear
4:35 AM 41.0 °F 36.4 °F 32.0 °F 70% 30.15 in 10.0 mi NE 6.9 mph - N/A   Scattered Clouds
4:55 AM 41.0 °F 37.1 °F 32.0 °F 70% 30.15 in 10.0 mi NE 5.8 mph - N/A   Scattered Clouds
5:15 AM 41.0 °F 39.0 °F 32.0 °F 70% 30.15 in 10.0 mi ENE 3.5 mph - N/A   Clear
5:35 AM 41.0 °F 38.0 °F 32.0 °F 70% 30.15 in 10.0 mi ENE 4.6 mph - N/A   Clear
5:55 AM 41.0 °F 38.0 °F 32.0 °F 70% 30.15 in 10.0 mi ENE 4.6 mph - N/A   Clear
6:15 AM 37.4 °F 33.8 °F 32.0 °F 81% 30.15 in 10.0 mi ENE 4.6 mph - N/A   Scattered Clouds
6:35 AM 41.0 °F 38.0 °F 32.0 °F 70% 30.14 in 10.0 mi ENE 4.6 mph - N/A   Mostly Cloudy
6:55 AM 41.0 °F 38.0 °F 32.0 °F 70% 30.14 in 10.0 mi NE 4.6 mph - N/A   Mostly Cloudy
7:35 AM 41.0 °F 37.1 °F 32.0 °F 70% 30.14 in 10.0 mi NE 5.8 mph - N/A   Scattered Clouds
7:55 AM 41.0 °F 38.0 °F 32.0 °F 70% 30.14 in 10.0 mi NE 4.6 mph - N/A   Clear
8:15 AM 41.0 °F 37.1 °F 32.0 °F 70% 30.14 in 10.0 mi ENE 5.8 mph - N/A   Scattered Clouds
8:35 AM 42.8 °F 39.3 °F 32.0 °F 66% 30.14 in 10.0 mi ENE 5.8 mph - N/A   Mostly Cloudy
8:55 AM 42.8 °F 39.3 °F 32.0 °F 66% 30.13 in 10.0 mi ENE 5.8 mph - N/A   Mostly Cloudy
9:35 AM 44.6 °F 41.4 °F 32.0 °F 61% 30.14 in 10.0 mi ENE 5.8 mph - N/A   Unknown
9:55 AM 44.6 °F 41.4 °F 32.0 °F 61% 30.14 in 10.0 mi NE 5.8 mph - N/A   Mostly Cloudy
10:15 AM - - - N/A% - - North - - N/A   Unknown
10:35 AM 46.4 °F 44.3 °F 33.8 °F 62% 30.13 in 10.0 mi NE 4.6 mph - N/A   Overcast
10:55 AM 48.2 °F - 33.8 °F 58% 30.12 in 10.0 mi ENE 5.8 mph - N/A   Mostly Cloudy
11:15 AM 51.8 °F - 35.6 °F 54% 30.11 in 10.0 mi ENE 9.2 mph - N/A   Mostly Cloudy
11:35 AM 51.8 °F - 35.6 °F 54% 30.10 in 10.0 mi NE 9.2 mph - N/A   Scattered Clouds
11:55 AM 51.8 °F - 35.6 °F 54% 30.10 in 10.0 mi NE 10.4 mph - N/A   Clear
12:15 PM 53.6 °F - 35.6 °F 51% 30.10 in 10.0 mi ENE 9.2 mph - N/A   Clear
12:35 PM 55.4 °F - 37.4 °F 51% 30.09 in 10.0 mi NE 8.1 mph - N/A   Clear
12:55 PM 55.4 °F - 35.6 °F 47% 30.09 in 10.0 mi NE 8.1 mph - N/A   Clear
1:15 PM 55.4 °F - 37.4 °F 51% 30.07 in 10.0 mi NE 8.1 mph - N/A   Mostly Cloudy
1:35 PM 55.4 °F - 37.4 °F 51% 30.07 in 10.0 mi ENE 15.0 mph 18.4 mph N/A   Overcast
1:55 PM 53.6 °F - 35.6 °F 51% 30.07 in 10.0 mi NE 11.5 mph 17.3 mph N/A   Overcast
2:15 PM 53.6 °F - 35.6 °F 51% 30.06 in 10.0 mi ENE 11.5 mph 17.3 mph N/A   Overcast
2:35 PM 51.8 °F - 35.6 °F 54% 30.06 in 10.0 mi NE 8.1 mph - N/A   Overcast
2:55 PM 51.8 °F - 35.6 °F 54% 30.06 in 10.0 mi NE 5.8 mph - N/A   Overcast
3:15 PM 51.8 °F - 33.8 °F 50% 30.06 in 10.0 mi NE 6.9 mph - N/A   Overcast
3:55 PM 51.8 °F - 35.6 °F 54% 30.06 in 10.0 mi NE 6.9 mph - N/A   Overcast
4:15 PM 51.8 °F - 35.6 °F 54% 30.07 in 10.0 mi NE 5.8 mph - N/A   Overcast
4:35 PM 51.8 °F - 35.6 °F 54% 30.07 in 10.0 mi NE 5.8 mph - N/A   Overcast
4:55 PM 51.8 °F - 35.6 °F 54% 30.06 in 10.0 mi NE 6.9 mph - N/A   Overcast
5:15 PM 51.8 °F - 37.4 °F 58% 30.06 in 10.0 mi ENE 3.5 mph - N/A   Overcast
5:35 PM 51.8 °F - 37.4 °F 58% 30.06 in 10.0 mi NE 5.8 mph - N/A   Overcast
5:55 PM 51.8 °F - 37.4 °F 58% 30.06 in 10.0 mi ENE 4.6 mph - N/A   Overcast
6:35 PM 48.2 °F - 35.6 °F 62% 30.06 in 10.0 mi NE 5.8 mph - N/A   Overcast
6:55 PM 48.2 °F - 37.4 °F 66% 30.06 in 10.0 mi NE 4.6 mph - N/A   Overcast
7:15 PM 48.2 °F - 37.4 °F 66% 30.06 in 10.0 mi NE 5.8 mph - N/A   Overcast
7:35 PM 46.4 °F 45.2 °F 37.4 °F 71% 30.06 in 10.0 mi NE 3.5 mph - N/A   Light Drizzle
7:55 PM 46.4 °F 45.2 °F 37.4 °F 71% 30.06 in 10.0 mi NE 3.5 mph - N/A   Overcast
8:15 PM 46.4 °F 45.2 °F 37.4 °F 71% 30.06 in 10.0 mi NE 3.5 mph - N/A   Overcast
8:35 PM 44.6 °F 43.1 °F 35.6 °F 71% 30.05 in 10.0 mi NE 3.5 mph - N/A   Overcast
8:55 PM 44.6 °F 41.4 °F 35.6 °F 71% 30.05 in 10.0 mi NE 5.8 mph - N/A   Overcast
9:15 PM 44.6 °F 42.2 °F 35.6 °F 71% 30.05 in 10.0 mi NE 4.6 mph - N/A   Overcast
9:35 PM 44.6 °F 41.4 °F 35.6 °F 71% 30.05 in 10.0 mi ENE 5.8 mph - N/A   Overcast
9:55 PM 44.6 °F 42.2 °F 35.6 °F 71% 30.06 in 10.0 mi ENE 4.6 mph - N/A   Overcast
10:15 PM 44.6 °F 43.1 °F 35.6 °F 71% 30.05 in 10.0 mi ENE 3.5 mph - N/A   Overcast
10:35 PM 44.6 °F 42.2 °F 35.6 °F 71% 30.05 in 10.0 mi ENE 4.6 mph - N/A   Overcast
10:55 PM 42.8 °F 41.1 °F 35.6 °F 76% 30.05 in 10.0 mi ENE 3.5 mph - N/A   Mostly Cloudy
11:15 PM 41.0 °F 39.0 °F 35.6 °F 81% 30.05 in 10.0 mi ENE 3.5 mph - N/A   Scattered Clouds
11:35 PM 41.0 °F 39.0 °F 35.6 °F 81% 30.05 in 10.0 mi NE 3.5 mph - N/A   Scattered Clouds
11:55 PM 41.0 °F - 35.6 °F 81% 30.05 in 10.0 mi Calm Calm - N/A   Mostly Cloudy